Time,TemperatureF,DewpointF,PressureIn,WindDirection,WindDirectionDegrees,WindSpeedMPH,WindSpeedGustMPH,Humidity,HourlyPrecipIn,Conditions,Clouds,dailyrainin,SoftwareType,DateUTC
2013-06-23 00:02:00,46.0,44.0,29.94,NW,325,0.0,-999.0,91,-99.99,,,-99.99,,2013-06-23 07:02:00,
2013-06-23 00:12:00,46.0,44.0,29.94,NW,325,0.0,-999.0,91,-99.99,,,-99.99,,2013-06-23 07:12:00,
2013-06-23 00:22:00,46.0,44.0,29.93,NW,325,0.0,-999.0,92,-99.99,,,-99.99,,2013-06-23 07:22:00,
2013-06-23 00:33:00,46.0,44.0,29.93,NW,325,0.0,-999.0,91,-99.99,,,-99.99,,2013-06-23 07:33:00,
2013-06-23 00:43:00,46.0,44.0,29.93,NW,325,0.0,-999.0,91,-99.99,,,-99.99,,2013-06-23 07:43:00,
2013-06-23 00:53:00,45.0,43.0,29.93,NW,325,0.0,-999.0,91,-99.99,,,-99.99,,2013-06-23 07:53:00,
2013-06-23 01:02:00,45.0,43.0,29.93,NW,325,0.0,-999.0,92,-99.99,,,-99.99,,2013-06-23 08:02:00,
2013-06-23 01:11:00,45.0,43.0,29.93,NW,325,0.0,-999.0,92,-99.99,,,-99.99,,2013-06-23 08:11:00,
2013-06-23 01:22:00,45.0,43.0,29.92,NW,325,0.0,-999.0,92,-99.99,,,-99.99,,2013-06-23 08:22:00,
2013-06-23 01:33:00,44.0,42.0,29.92,NW,325,0.0,-999.0,92,-99.99,,,-99.99,,2013-06-23 08:33:00,
2013-06-23 01:42:00,44.0,42.0,29.92,NW,325,0.0,-999.0,92,-99.99,,,-99.99,,2013-06-23 08:42:00,
2013-06-23 01:53:00,44.0,42.0,29.91,NW,325,0.0,-999.0,92,-99.99,,,-99.99,,2013-06-23 08:53:00,
2013-06-23 02:02:00,44.0,42.0,29.91,NW,325,0.0,-999.0,93,-99.99,,,-99.99,,2013-06-23 09:02:00,
2013-06-23 02:12:00,44.0,42.0,29.91,NW,325,0.0,-999.0,93,-99.99,,,-99.99,,2013-06-23 09:12:00,
2013-06-23 02:22:00,43.0,41.0,29.91,NW,325,0.0,-999.0,93,-99.99,,,-99.99,,2013-06-23 09:22:00,
2013-06-23 02:34:00,43.0,41.0,29.91,NW,325,0.0,-999.0,93,-99.99,,,-99.99,,2013-06-23 09:34:00,
2013-06-23 02:43:00,43.0,41.0,29.91,NW,325,0.0,-999.0,93,-99.99,,,-99.99,,2013-06-23 09:43:00,
2013-06-23 02:53:00,43.0,41.0,29.90,NW,325,0.0,-999.0,94,-99.99,,,-99.99,,2013-06-23 09:53:00,
2013-06-23 03:02:00,43.0,41.0,29.90,NW,325,0.0,-999.0,93,-99.99,,,-99.99,,2013-06-23 10:02:00,
2013-06-23 03:11:00,43.0,41.0,29.90,NW,325,0.0,-999.0,93,-99.99,,,-99.99,,2013-06-23 10:11:00,
2013-06-23 03:22:00,42.0,40.0,29.90,NW,325,0.0,-999.0,93,-99.99,,,-99.99,,2013-06-23 10:22:00,
2013-06-23 03:34:00,42.0,40.0,29.90,NW,325,0.0,-999.0,94,-99.99,,,-99.99,,2013-06-23 10:34:00,
2013-06-23 03:43:00,42.0,40.0,29.90,NW,325,0.0,-999.0,94,-99.99,,,-99.99,,2013-06-23 10:43:00,
2013-06-23 03:53:00,42.0,40.0,29.89,NW,325,0.0,-999.0,94,-99.99,,,-99.99,,2013-06-23 10:53:00,
2013-06-23 04:01:00,41.0,39.0,29.89,NW,325,0.0,-999.0,94,-99.99,,,-99.99,,2013-06-23 11:01:00,
2013-06-23 04:11:00,41.0,39.0,29.89,NW,325,0.0,-999.0,94,-99.99,,,-99.99,,2013-06-23 11:11:00,
2013-06-23 04:22:00,41.0,39.0,29.89,NW,325,0.0,-999.0,94,-99.99,,,-99.99,,2013-06-23 11:22:00,
2013-06-23 04:33:00,40.0,38.0,29.89,NW,325,0.0,-999.0,94,-99.99,,,-99.99,,2013-06-23 11:33:00,
2013-06-23 04:43:00,40.0,38.0,29.89,NW,325,0.0,-999.0,94,-99.99,,,-99.99,,2013-06-23 11:43:00,
2013-06-23 04:53:00,40.0,38.0,29.89,NW,325,0.0,-999.0,94,-99.99,,,-99.99,,2013-06-23 11:53:00,
2013-06-23 05:01:00,40.0,39.0,29.89,NW,325,0.0,-999.0,95,-99.99,,,-99.99,,2013-06-23 12:01:00,
2013-06-23 05:11:00,40.0,39.0,29.89,NW,325,0.0,-999.0,95,-99.99,,,-99.99,,2013-06-23 12:11:00,
2013-06-23 05:22:00,40.0,38.0,29.88,NW,325,0.0,-999.0,94,-99.99,,,-99.99,,2013-06-23 12:22:00,
2013-06-23 05:33:00,40.0,38.0,29.88,NW,325,0.0,-999.0,94,-99.99,,,-99.99,,2013-06-23 12:33:00,
2013-06-23 05:42:00,39.0,37.0,29.88,NW,325,0.0,-999.0,94,-99.99,,,-99.99,,2013-06-23 12:42:00,
2013-06-23 05:53:00,39.0,37.0,29.88,NW,325,0.0,-999.0,94,-99.99,,,-99.99,,2013-06-23 12:53:00,
2013-06-23 06:01:00,40.0,39.0,29.88,NW,325,0.0,-999.0,96,-99.99,,,-99.99,,2013-06-23 13:01:00,
2013-06-23 06:23:00,42.0,41.0,29.88,NW,325,0.0,-999.0,96,-99.99,,,-99.99,,2013-06-23 13:23:00,
2013-06-23 06:33:00,44.0,42.0,29.88,NW,325,0.0,-999.0,93,-99.99,,,-99.99,,2013-06-23 13:33:00,
2013-06-23 06:43:00,44.0,42.0,29.88,NW,325,0.0,-999.0,93,-99.99,,,-99.99,,2013-06-23 13:43:00,
2013-06-23 06:53:00,44.0,41.0,29.88,NW,325,0.0,-999.0,90,-99.99,,,-99.99,,2013-06-23 13:53:00,
2013-06-23 07:04:00,44.0,41.0,29.88,NW,325,0.0,-999.0,90,-99.99,,,-99.99,,2013-06-23 14:04:00,
2013-06-23 07:11:00,44.0,42.0,29.88,NW,325,0.0,-999.0,92,-99.99,,,-99.99,,2013-06-23 14:11:00,
2013-06-23 07:33:00,47.0,45.0,29.88,NW,325,0.0,-999.0,92,-99.99,,,-99.99,,2013-06-23 14:33:00,
2013-06-23 07:44:00,50.0,45.0,29.87,NW,325,0.0,-999.0,84,-99.99,,,-99.99,,2013-06-23 14:44:00,
2013-06-23 09:11:00,60.0,47.0,29.85,ENE,72,1.0,-999.0,62,-99.99,,,-99.99,,2013-06-23 16:11:00,
2013-06-23 09:22:00,61.0,48.0,29.84,South,170,1.0,-999.0,62,-99.99,,,-99.99,,2013-06-23 16:22:00,
2013-06-23 09:42:00,62.0,48.0,29.84,South,173,0.0,-999.0,60,-99.99,,,-99.99,,2013-06-23 16:42:00,
2013-06-23 09:53:00,63.0,48.0,29.83,South,173,0.0,-999.0,57,-99.99,,,-99.99,,2013-06-23 16:53:00,
2013-06-23 10:11:00,64.0,48.0,29.83,South,187,1.0,-999.0,56,-99.99,,,-99.99,,2013-06-23 17:11:00,
2013-06-23 10:22:00,64.0,47.0,29.82,SSW,207,1.0,-999.0,54,-99.99,,,-99.99,,2013-06-23 17:22:00,
2013-06-23 10:33:00,66.0,48.0,29.81,SE,134,1.0,-999.0,53,-99.99,,,-99.99,,2013-06-23 17:33:00,
2013-06-23 10:43:00,66.0,48.0,29.81,SE,134,1.0,-999.0,53,-99.99,,,-99.99,,2013-06-23 17:43:00,
2013-06-23 10:53:00,67.0,48.0,29.81,SSW,193,1.0,-999.0,50,-99.99,,,-99.99,,2013-06-23 17:53:00,
2013-06-23 11:01:00,67.0,49.0,29.80,South,184,1.0,-999.0,52,-99.99,,,-99.99,,2013-06-23 18:01:00,
2013-06-23 11:11:00,67.0,49.0,29.80,South,184,1.0,-999.0,52,-99.99,,,-99.99,,2013-06-23 18:11:00,
2013-06-23 11:22:00,69.0,50.0,29.80,South,169,1.0,-999.0,50,-99.99,,,-99.99,,2013-06-23 18:22:00,
2013-06-23 11:33:00,70.0,49.0,29.79,West,269,2.0,-999.0,47,-99.99,,,-99.99,,2013-06-23 18:33:00,
2013-06-23 11:42:00,70.0,49.0,29.79,West,269,2.0,-999.0,47,-99.99,,,-99.99,,2013-06-23 18:42:00,
2013-06-23 11:53:00,70.0,48.0,29.79,East,85,2.0,-999.0,45,-99.99,,,-99.99,,2013-06-23 18:53:00,
2013-06-23 12:01:00,70.0,46.0,29.78,SSW,207,1.0,-999.0,43,-99.99,,,-99.99,,2013-06-23 19:01:00,
2013-06-23 12:11:00,70.0,46.0,29.78,SSW,207,1.0,-999.0,43,-99.99,,,-99.99,,2013-06-23 19:11:00,
2013-06-23 12:32:00,71.0,47.0,29.78,NE,51,1.0,-999.0,42,-99.99,,,-99.99,,2013-06-23 19:32:00,
2013-06-23 12:43:00,71.0,45.0,29.77,North,360,0.0,-999.0,40,-99.99,,,-99.99,,2013-06-23 19:43:00,
2013-06-23 12:53:00,72.0,46.0,29.77,SSE,156,1.0,-999.0,39,-99.99,,,-99.99,,2013-06-23 19:53:00,
2013-06-23 13:01:00,71.0,47.0,29.76,ESE,103,3.0,-999.0,42,-99.99,,,-99.99,,2013-06-23 20:01:00,
2013-06-23 13:11:00,71.0,47.0,29.76,ESE,103,3.0,-999.0,42,-99.99,,,-99.99,,2013-06-23 20:11:00,
2013-06-23 13:23:00,71.0,45.0,29.76,SSW,211,2.0,-999.0,39,-99.99,,,-99.99,,2013-06-23 20:23:00,
2013-06-23 13:33:00,71.0,44.0,29.76,West,259,2.0,-999.0,38,-99.99,,,-99.99,,2013-06-23 20:33:00,
2013-06-23 13:42:00,71.0,44.0,29.76,West,259,2.0,-999.0,38,-99.99,,,-99.99,,2013-06-23 20:42:00,
2013-06-23 13:53:00,71.0,45.0,29.75,SSW,209,0.0,-999.0,40,-99.99,,,-99.99,,2013-06-23 20:53:00,
2013-06-23 14:01:00,72.0,46.0,29.75,WNW,292,2.0,-999.0,39,-99.99,,,-99.99,,2013-06-23 21:01:00,
2013-06-23 14:11:00,72.0,46.0,29.75,WNW,292,2.0,-999.0,39,-99.99,,,-99.99,,2013-06-23 21:11:00,
2013-06-23 14:22:00,72.0,45.0,29.75,SSW,202,2.0,-999.0,38,-99.99,,,-99.99,,2013-06-23 21:22:00,
2013-06-23 14:33:00,72.0,45.0,29.75,West,281,3.0,-999.0,38,-99.99,,,-99.99,,2013-06-23 21:33:00,
2013-06-23 14:43:00,72.0,45.0,29.75,West,281,3.0,-999.0,38,-99.99,,,-99.99,,2013-06-23 21:43:00,
2013-06-23 14:52:00,72.0,47.0,29.75,WSW,246,1.0,-999.0,41,-99.99,,,-99.99,,2013-06-23 21:52:00,
2013-06-23 15:01:00,72.0,48.0,29.73,NE,51,1.0,-999.0,42,-99.99,,,-99.99,,2013-06-23 22:01:00,
2013-06-23 15:11:00,72.0,48.0,29.73,NE,51,1.0,-999.0,42,-99.99,,,-99.99,,2013-06-23 22:11:00,
2013-06-23 15:22:00,72.0,47.0,29.72,NW,311,2.0,-999.0,41,-99.99,,,-99.99,,2013-06-23 22:22:00,
2013-06-23 15:32:00,72.0,43.0,29.72,WNW,299,2.0,-999.0,35,-99.99,,,-99.99,,2013-06-23 22:32:00,
2013-06-23 15:43:00,72.0,43.0,29.72,WNW,299,2.0,-999.0,35,-99.99,,,-99.99,,2013-06-23 22:43:00,
2013-06-23 15:53:00,72.0,44.0,29.72,WNW,282,2.0,-999.0,37,-99.99,,,-99.99,,2013-06-23 22:53:00,
2013-06-23 16:01:00,73.0,44.0,29.71,SSW,198,1.0,-999.0,35,-99.99,,,-99.99,,2013-06-23 23:01:00,
2013-06-23 16:11:00,73.0,44.0,29.71,SSW,198,1.0,-999.0,35,-99.99,,,-99.99,,2013-06-23 23:11:00,
2013-06-23 16:22:00,72.0,45.0,29.71,WNW,295,2.0,-999.0,38,-99.99,,,-99.99,,2013-06-23 23:22:00,
2013-06-23 16:33:00,73.0,47.0,29.70,NW,314,0.0,-999.0,39,-99.99,,,-99.99,,2013-06-23 23:33:00,
2013-06-23 16:44:00,73.0,47.0,29.70,NW,314,0.0,-999.0,39,-99.99,,,-99.99,,2013-06-23 23:44:00,
2013-06-23 16:52:00,73.0,46.0,29.69,NNW,332,1.0,-999.0,38,-99.99,,,-99.99,,2013-06-23 23:52:00,
2013-06-23 17:01:00,72.0,46.0,29.68,NNW,333,0.0,-999.0,40,-99.99,,,-99.99,,2013-06-24 00:01:00,
2013-06-23 17:11:00,72.0,46.0,29.68,NNW,333,0.0,-999.0,40,-99.99,,,-99.99,,2013-06-24 00:11:00,
2013-06-23 17:22:00,73.0,45.0,29.68,NNW,335,0.0,-999.0,37,-99.99,,,-99.99,,2013-06-24 00:22:00,
2013-06-23 17:33:00,73.0,48.0,29.67,NNW,335,0.0,-999.0,41,-99.99,,,-99.99,,2013-06-24 00:33:00,
2013-06-23 17:42:00,73.0,48.0,29.67,NNW,335,0.0,-999.0,41,-99.99,,,-99.99,,2013-06-24 00:42:00,
2013-06-23 17:52:00,72.0,46.0,29.67,NE,40,1.0,-999.0,40,-99.99,,,-99.99,,2013-06-24 00:52:00,
2013-06-23 18:01:00,71.0,47.0,29.67,NW,306,1.0,-999.0,42,-99.99,,,-99.99,,2013-06-24 01:01:00,
2013-06-23 18:11:00,71.0,47.0,29.67,NW,306,1.0,-999.0,42,-99.99,,,-99.99,,2013-06-24 01:11:00,
2013-06-23 18:21:00,71.0,47.0,29.66,NW,306,0.0,-999.0,42,-99.99,,,-99.99,,2013-06-24 01:21:00,
2013-06-23 18:32:00,71.0,47.0,29.66,NW,306,0.0,-999.0,42,-99.99,,,-99.99,,2013-06-24 01:32:00,
2013-06-23 18:42:00,71.0,47.0,29.66,NW,306,0.0,-999.0,42,-99.99,,,-99.99,,2013-06-24 01:42:00,
2013-06-23 18:53:00,71.0,48.0,29.65,NW,306,0.0,-999.0,44,-99.99,,,-99.99,,2013-06-24 01:53:00,
2013-06-23 19:01:00,71.0,47.0,29.65,NW,306,0.0,-999.0,43,-99.99,,,-99.99,,2013-06-24 02:01:00,
2013-06-23 19:11:00,71.0,47.0,29.65,NW,306,0.0,-999.0,43,-99.99,,,-99.99,,2013-06-24 02:11:00,
2013-06-23 19:21:00,71.0,49.0,29.65,NW,306,0.0,-999.0,45,-99.99,,,-99.99,,2013-06-24 02:21:00,
2013-06-23 19:33:00,70.0,49.0,29.65,NW,306,0.0,-999.0,48,-99.99,,,-99.99,,2013-06-24 02:33:00,
2013-06-23 19:42:00,70.0,49.0,29.65,NW,306,0.0,-999.0,48,-99.99,,,-99.99,,2013-06-24 02:42:00,
2013-06-23 19:53:00,70.0,50.0,29.65,NW,306,0.0,-999.0,49,-99.99,,,-99.99,,2013-06-24 02:53:00,
2013-06-23 20:01:00,69.0,50.0,29.65,NW,306,0.0,-999.0,51,-99.99,,,-99.99,,2013-06-24 03:01:00,
2013-06-23 20:11:00,69.0,50.0,29.65,NW,306,0.0,-999.0,51,-99.99,,,-99.99,,2013-06-24 03:11:00,
2013-06-23 20:22:00,68.0,53.0,29.64,NW,306,0.0,-999.0,59,-99.99,,,-99.99,,2013-06-24 03:22:00,
2013-06-23 20:42:00,67.0,51.0,29.64,NW,306,0.0,-999.0,57,-99.99,,,-99.99,,2013-06-24 03:42:00,
2013-06-23 20:53:00,65.0,52.0,29.62,NW,306,0.0,-999.0,63,-99.99,,,-99.99,,2013-06-24 03:53:00,
2013-06-23 21:01:00,64.0,54.0,29.62,NW,306,0.0,-999.0,69,-99.99,,,-99.99,,2013-06-24 04:01:00,
2013-06-23 21:11:00,64.0,54.0,29.62,NW,306,0.0,-999.0,69,-99.99,,,-99.99,,2013-06-24 04:11:00,
2013-06-23 21:22:00,64.0,54.0,29.62,NW,306,0.0,-999.0,69,-99.99,,,-99.99,,2013-06-24 04:22:00,
2013-06-23 21:33:00,64.0,54.0,29.62,NW,306,0.0,-999.0,69,-99.99,,,-99.99,,2013-06-24 04:33:00,
2013-06-23 21:43:00,64.0,53.0,29.60,NE,53,1.0,-999.0,67,-99.99,,,-99.99,,2013-06-24 04:43:00,
2013-06-23 21:53:00,64.0,52.0,29.61,ENE,77,3.0,-999.0,66,-99.99,,,-99.99,,2013-06-24 04:53:00,
2013-06-23 22:02:00,63.0,51.0,29.60,ENE,66,0.0,-999.0,65,-99.99,,,-99.99,,2013-06-24 05:02:00,
2013-06-23 22:12:00,63.0,51.0,29.60,ENE,66,0.0,-999.0,65,-99.99,,,-99.99,,2013-06-24 05:12:00,
2013-06-23 22:22:00,63.0,53.0,29.60,ENE,65,0.0,-999.0,71,-99.99,,,-99.99,,2013-06-24 05:22:00,
2013-06-23 22:43:00,62.0,52.0,29.59,ENE,65,0.0,-999.0,71,-99.99,,,-99.99,,2013-06-24 05:43:00,
2013-06-23 22:53:00,61.0,53.0,29.60,ENE,65,0.0,-999.0,76,-99.99,,,-99.99,,2013-06-24 05:53:00,
2013-06-23 23:02:00,60.0,52.0,29.59,ENE,65,0.0,-999.0,75,-99.99,,,-99.99,,2013-06-24 06:02:00,
2013-06-23 23:12:00,60.0,52.0,29.59,ENE,65,0.0,-999.0,75,-99.99,,,-99.99,,2013-06-24 06:12:00,
2013-06-23 23:22:00,60.0,53.0,29.59,ENE,65,0.0,-999.0,78,-99.99,,,-99.99,,2013-06-24 06:22:00,
2013-06-23 23:33:00,59.0,53.0,29.58,ENE,65,0.0,-999.0,81,-99.99,,,-99.99,,2013-06-24 06:33:00,
2013-06-23 23:43:00,59.0,53.0,29.58,ENE,65,0.0,-999.0,81,-99.99,,,-99.99,,2013-06-24 06:43:00,
2013-06-23 23:54:00,59.0,53.0,29.58,ENE,65,0.0,-999.0,80,-99.99,,,-99.99,,2013-06-24 06:54:00,